Wetterdaten: Sonntag, 26.05.2013
Datum Zeit Temperatur Luftfeuchte Luftdruck Regen Wind Richtung Richtung Taupunkt Windchill Windben
26.05.2013 00:00 2,6 C 96 % 1014,1 hPa 0,0 l/m 1,0 km/h (0 Bft) O 90 2,0 C 2,3 C 1,9 km/h (1 Bft)
26.05.2013 00:05 2,6 C 96 % 1014,0 hPa 0,0 l/m 1,0 km/h (0 Bft) N 360 2,0 C 2,3 C 0,0 km/h (0 Bft)
26.05.2013 00:10 2,6 C 96 % 1014,0 hPa 0,0 l/m 1,0 km/h (0 Bft) W 270 2,0 C 2,3 C 2,6 km/h (1 Bft)
26.05.2013 00:15 2,6 C 96 % 1014,0 hPa 0,0 l/m 1,3 km/h (1 Bft) S-SW 202 2,0 C 2,3 C 0,0 km/h (0 Bft)
26.05.2013 00:20 2,6 C 96 % 1014,0 hPa 0,0 l/m 2,1 km/h (1 Bft) S 180 2,0 C 2,3 C 5,0 km/h (1 Bft)
26.05.2013 00:25 2,6 C 96 % 1014,2 hPa 0,0 l/m 2,1 km/h (1 Bft) NW 315 2,0 C 2,3 C 0,0 km/h (0 Bft)
26.05.2013 00:30 2,6 C 96 % 1014,2 hPa 0,0 l/m 1,4 km/h (1 Bft) O-SO 112 2,0 C 2,3 C 0,0 km/h (0 Bft)
26.05.2013 00:35 2,6 C 96 % 1014,2 hPa 0,0 l/m 0,6 km/h (0 Bft) S 180 2,0 C 2,3 C 0,0 km/h (0 Bft)
26.05.2013 00:40 2,6 C 96 % 1014,2 hPa 0,0 l/m 0,3 km/h (0 Bft) O-SO 112 2,0 C 2,3 C 6,0 km/h (2 Bft)
26.05.2013 00:45 2,6 C 96 % 1014,1 hPa 0,0 l/m 0,8 km/h (0 Bft) W-SW 247 2,0 C 2,3 C 0,0 km/h (0 Bft)
26.05.2013 00:50 2,7 C 96 % 1014,1 hPa 0,0 l/m 1,4 km/h (1 Bft) SO 135 2,1 C 2,4 C 0,0 km/h (0 Bft)
26.05.2013 00:55 2,7 C 96 % 1014,1 hPa 0,0 l/m 1,0 km/h (0 Bft) NO 45 2,1 C 2,4 C 0,0 km/h (0 Bft)
26.05.2013 01:00 2,7 C 97 % 1014,1 hPa 0,0 l/m 0,5 km/h (0 Bft) W-NW 292 2,3 C 2,3 C 0,0 km/h (0 Bft)
26.05.2013 01:05 2,7 C 97 % 1014,2 hPa 0,0 l/m 0,5 km/h (0 Bft) S-SW 202 2,3 C 2,3 C 0,0 km/h (0 Bft)
26.05.2013 01:10 2,7 C 97 % 1014,2 hPa 0,0 l/m 0,3 km/h (0 Bft) S-SO 157 2,3 C 2,4 C 2,6 km/h (1 Bft)
26.05.2013 01:15 2,8 C 97 % 1014,2 hPa 0,0 l/m 0,5 km/h (0 Bft) S 180 2,4 C 2,4 C 3,2 km/h (1 Bft)
26.05.2013 01:20 2,8 C 97 % 1014,2 hPa 0,0 l/m 2,3 km/h (1 Bft) O 90 2,4 C 2,6 C 7,2 km/h (2 Bft)
26.05.2013 01:25 2,8 C 97 % 1014,1 hPa 0,0 l/m 3,5 km/h (1 Bft) SO 135 2,4 C 2,1 C 5,1 km/h (1 Bft)
26.05.2013 01:30 2,7 C 97 % 1014,1 hPa 0,0 l/m 4,8 km/h (1 Bft) S-SW 202 2,3 C 1,6 C 15,3 km/h (3 Bft)
26.05.2013 01:35 2,8 C 97 % 1014,1 hPa 0,0 l/m 5,5 km/h (1 Bft) SO 135 2,4 C 1,3 C 4,8 km/h (1 Bft)
26.05.2013 01:40 2,9 C 97 % 1014,1 hPa 0,0 l/m 5,6 km/h (1 Bft) S-SO 157 2,5 C 1,3 C 6,3 km/h (2 Bft)
26.05.2013 01:45 2,9 C 97 % 1014,1 hPa 0,0 l/m 5,6 km/h (1 Bft) SO 135 2,5 C 1,4 C 7,6 km/h (2 Bft)
26.05.2013 01:50 3,0 C 96 % 1014,1 hPa 0,0 l/m 4,3 km/h (1 Bft) SO 135 2,4 C 2,1 C 4,5 km/h (1 Bft)
26.05.2013 01:55 3,0 C 96 % 1014,1 hPa 0,0 l/m 4,3 km/h (1 Bft) S 180 2,4 C 2,1 C 11,4 km/h (2 Bft)
26.05.2013 02:00 3,0 C 96 % 1014,1 hPa 0,0 l/m 4,2 km/h (1 Bft) S-SO 157 2,4 C 2,3 C 4,8 km/h (1 Bft)
26.05.2013 02:05 3,1 C 96 % 1014,1 hPa 0,0 l/m 4,7 km/h (1 Bft) S 180 2,5 C 2,1 C 6,4 km/h (2 Bft)
26.05.2013 02:10 3,1 C 96 % 1014,1 hPa 0,0 l/m 5,0 km/h (1 Bft) S-SO 157 2,5 C 1,9 C 7,4 km/h (2 Bft)
26.05.2013 02:15 3,1 C 96 % 1014,1 hPa 0,0 l/m 4,8 km/h (1 Bft) O-SO 112 2,5 C 2,0 C 10,5 km/h (2 Bft)
26.05.2013 02:20 3,1 C 96 % 1014,1 hPa 0,0 l/m 4,3 km/h (1 Bft) S 180 2,5 C 2,1 C 6,4 km/h (2 Bft)
26.05.2013 02:25 3,2 C 96 % 1014,2 hPa 0,0 l/m 4,5 km/h (1 Bft) S 180 2,6 C 2,0 C 6,4 km/h (2 Bft)
26.05.2013 02:30 3,2 C 96 % 1014,2 hPa 0,0 l/m 4,8 km/h (1 Bft) S 180 2,6 C 1,9 C 7,1 km/h (2 Bft)
26.05.2013 02:35 3,2 C 96 % 1014,2 hPa 0,0 l/m 5,8 km/h (2 Bft) S 180 2,6 C 1,6 C 6,0 km/h (2 Bft)
26.05.2013 02:40 3,2 C 96 % 1014,2 hPa 0,0 l/m 5,8 km/h (2 Bft) S 180 2,6 C 1,6 C 7,4 km/h (2 Bft)
26.05.2013 02:45 3,2 C 96 % 1014,0 hPa 0,0 l/m 5,0 km/h (1 Bft) S 180 2,6 C 1,8 C 6,4 km/h (2 Bft)
26.05.2013 02:50 3,2 C 96 % 1014,0 hPa 0,0 l/m 5,1 km/h (1 Bft) S 180 2,6 C 1,7 C 8,7 km/h (2 Bft)
26.05.2013 02:55 3,2 C 96 % 1014,0 hPa 0,0 l/m 5,6 km/h (1 Bft) S 180 2,6 C 1,6 C 8,5 km/h (2 Bft)
26.05.2013 03:00 3,2 C 96 % 1014,0 hPa 0,0 l/m 5,8 km/h (2 Bft) SW 225 2,6 C 1,5 C 7,4 km/h (2 Bft)
26.05.2013 03:05 3,2 C 96 % 1013,9 hPa 0,0 l/m 6,1 km/h (2 Bft) S 180 2,6 C 1,4 C 10,1 km/h (2 Bft)
26.05.2013 03:10 3,1 C 96 % 1013,9 hPa 0,0 l/m 6,4 km/h (2 Bft) S-SO 157 2,5 C 1,2 C 7,2 km/h (2 Bft)
26.05.2013 03:15 3,1 C 96 % 1013,9 hPa 0,0 l/m 5,8 km/h (2 Bft) SO 135 2,5 C 1,5 C 4,3 km/h (1 Bft)
26.05.2013 03:20 3,1 C 96 % 1013,9 hPa 0,0 l/m 5,0 km/h (1 Bft) S 180 2,5 C 1,8 C 9,0 km/h (2 Bft)
26.05.2013 03:25 3,1 C 96 % 1013,8 hPa 0,0 l/m 4,5 km/h (1 Bft) SO 135 2,5 C 1,9 C 5,0 km/h (1 Bft)
26.05.2013 03:30 3,0 C 96 % 1013,8 hPa 0,0 l/m 4,5 km/h (1 Bft) S-SO 157 2,4 C 1,9 C 8,4 km/h (2 Bft)
26.05.2013 03:35 3,0 C 96 % 1013,8 hPa 0,0 l/m 4,7 km/h (1 Bft) S 180 2,4 C 1,8 C 4,7 km/h (1 Bft)
26.05.2013 03:40 3,0 C 96 % 1013,8 hPa 0,0 l/m 5,3 km/h (1 Bft) SO 135 2,4 C 1,6 C 7,4 km/h (2 Bft)
26.05.2013 03:45 3,0 C 96 % 1013,4 hPa 0,0 l/m 5,1 km/h (1 Bft) S 180 2,4 C 1,6 C 5,8 km/h (2 Bft)
26.05.2013 03:50 3,0 C 96 % 1013,4 hPa 0,0 l/m 6,1 km/h (2 Bft) O 90 2,4 C 1,2 C 7,1 km/h (2 Bft)
26.05.2013 03:55 2,9 C 97 % 1013,4 hPa 0,0 l/m 6,3 km/h (2 Bft) S 180 2,5 C 1,1 C 10,3 km/h (2 Bft)
26.05.2013 04:00 2,9 C 97 % 1013,4 hPa 0,0 l/m 6,9 km/h (2 Bft) S-SO 157 2,5 C 0,3 C 16,3 km/h (3 Bft)
26.05.2013 04:05 2,7 C 97 % 1013,4 hPa 0,0 l/m 7,2 km/h (2 Bft) S-SO 157 2,3 C -0,1 C 10,9 km/h (2 Bft)
26.05.2013 04:10 2,7 C 97 % 1013,4 hPa 0,0 l/m 5,3 km/h (1 Bft) O 90 2,3 C 1,2 C 6,9 km/h (2 Bft)
26.05.2013 04:15 2,7 C 96 % 1013,4 hPa 0,0 l/m 4,7 km/h (1 Bft) S 180 2,1 C 1,5 C 6,1 km/h (2 Bft)
26.05.2013 04:20 2,7 C 97 % 1013,4 hPa 0,0 l/m 4,0 km/h (1 Bft) S-SO 157 2,3 C 1,7 C 6,9 km/h (2 Bft)
26.05.2013 04:25 2,7 C 97 % 1013,4 hPa 0,0 l/m 5,1 km/h (1 Bft) S-SW 202 2,3 C 1,3 C 10,6 km/h (2 Bft)
26.05.2013 04:30 2,9 C 96 % 1013,4 hPa 0,0 l/m 7,4 km/h (2 Bft) SO 135 2,3 C -0,3 C 8,2 km/h (2 Bft)
26.05.2013 04:35 2,9 C 96 % 1013,4 hPa 0,0 l/m 8,0 km/h (2 Bft) S-SW 202 2,3 C -1,0 C 10,3 km/h (2 Bft)
26.05.2013 04:40 2,8 C 96 % 1013,4 hPa 0,0 l/m 8,2 km/h (2 Bft) S 180 2,2 C -1,2 C 16,1 km/h (3 Bft)
26.05.2013 04:45 3,0 C 96 % 1013,4 hPa 0,0 l/m 9,0 km/h (2 Bft) S 180 2,4 C -2,0 C 14,6 km/h (3 Bft)
26.05.2013 04:50 3,0 C 95 % 1013,4 hPa 0,0 l/m 10,1 km/h (2 Bft) S 180 2,3 C -3,3 C 20,0 km/h (4 Bft)
26.05.2013 04:55 3,0 C 95 % 1013,4 hPa 0,0 l/m 10,1 km/h (2 Bft) S 180 2,3 C -3,3 C 11,9 km/h (2 Bft)
26.05.2013 05:00 3,0 C 95 % 1013,4 hPa 0,0 l/m 9,8 km/h (2 Bft) S-SW 202 2,3 C -2,8 C 21,4 km/h (4 Bft)
26.05.2013 05:05 3,2 C 95 % 1013,6 hPa 0,0 l/m 9,7 km/h (2 Bft) S 180 2,5 C -2,6 C 12,7 km/h (3 Bft)
26.05.2013 05:10 3,1 C 95 % 1013,6 hPa 0,0 l/m 9,7 km/h (2 Bft) S-SO 157 2,4 C -2,6 C 10,6 km/h (2 Bft)
26.05.2013 05:15 3,1 C 95 % 1013,6 hPa 0,0 l/m 8,9 km/h (2 Bft) S-SW 202 2,4 C -1,7 C 6,6 km/h (2 Bft)
26.05.2013 05:20 3,2 C 94 % 1013,6 hPa 0,0 l/m 7,2 km/h (2 Bft) S-SO 157 2,3 C 0,4 C 6,4 km/h (2 Bft)
26.05.2013 05:25 3,2 C 94 % 1013,6 hPa 0,0 l/m 6,3 km/h (2 Bft) SO 135 2,3 C 1,6 C 7,1 km/h (2 Bft)
26.05.2013 05:30 3,3 C 94 % 1013,6 hPa 0,0 l/m 6,0 km/h (2 Bft) SO 135 2,4 C 1,7 C 5,8 km/h (2 Bft)
26.05.2013 05:35 3,3 C 94 % 1013,6 hPa 0,0 l/m 6,3 km/h (2 Bft) S 180 2,4 C 1,6 C 8,5 km/h (2 Bft)
26.05.2013 05:40 3,4 C 94 % 1013,6 hPa 0,0 l/m 6,4 km/h (2 Bft) S 180 2,5 C 1,7 C 10,5 km/h (2 Bft)
26.05.2013 05:45 3,4 C 94 % 1014,1 hPa 0,0 l/m 6,3 km/h (2 Bft) S 180 2,5 C 1,8 C 5,3 km/h (1 Bft)
26.05.2013 05:50 3,4 C 94 % 1014,1 hPa 0,0 l/m 5,8 km/h (2 Bft) O-SO 112 2,5 C 2,1 C 5,8 km/h (2 Bft)
26.05.2013 05:55 3,4 C 94 % 1014,1 hPa 0,0 l/m 5,1 km/h (1 Bft) S-SW 202 2,5 C 2,2 C 6,0 km/h (2 Bft)
26.05.2013 06:00 3,4 C 94 % 1014,1 hPa 0,0 l/m 5,8 km/h (2 Bft) S-SO 157 2,5 C 1,9 C 14,0 km/h (3 Bft)
26.05.2013 06:05 3,4 C 94 % 1014,4 hPa 0,0 l/m 6,4 km/h (2 Bft) W-SW 247 2,5 C 1,8 C 7,4 km/h (2 Bft)
26.05.2013 06:10 3,4 C 94 % 1014,4 hPa 0,0 l/m 6,3 km/h (2 Bft) S-SO 157 2,5 C 1,9 C 5,5 km/h (1 Bft)
26.05.2013 06:15 3,4 C 94 % 1014,4 hPa 0,0 l/m 5,6 km/h (1 Bft) S 180 2,5 C 2,1 C 7,2 km/h (2 Bft)
26.05.2013 06:20 3,4 C 94 % 1014,4 hPa 0,0 l/m 6,0 km/h (2 Bft) S-SO 157 2,5 C 1,9 C 11,9 km/h (2 Bft)
26.05.2013 06:25 3,4 C 94 % 1014,9 hPa 0,0 l/m 6,3 km/h (2 Bft) S-SW 202 2,5 C 1,8 C 8,5 km/h (2 Bft)
26.05.2013 06:30 3,4 C 94 % 1014,9 hPa 0,0 l/m 7,4 km/h (2 Bft) S-SW 202 2,5 C 0,4 C 9,8 km/h (2 Bft)
26.05.2013 06:35 3,4 C 94 % 1014,9 hPa 0,0 l/m 6,9 km/h (2 Bft) S-SO 157 2,5 C 1,2 C 7,4 km/h (2 Bft)
26.05.2013 06:40 3,5 C 94 % 1014,9 hPa 0,0 l/m 5,5 km/h (1 Bft) S 180 2,6 C 2,3 C 6,0 km/h (2 Bft)
26.05.2013 06:45 3,6 C 94 % 1014,9 hPa 0,0 l/m 5,6 km/h (1 Bft) S 180 2,7 C 2,4 C 10,0 km/h (2 Bft)
26.05.2013 06:50 3,7 C 93 % 1014,9 hPa 0,0 l/m 6,8 km/h (2 Bft) S 180 2,7 C 1,7 C 5,1 km/h (1 Bft)
26.05.2013 06:55 3,8 C 93 % 1014,9 hPa 0,0 l/m 8,2 km/h (2 Bft) S-SO 157 2,8 C 0,1 C 15,6 km/h (3 Bft)
26.05.2013 07:00 3,9 C 93 % 1014,9 hPa 0,0 l/m 8,5 km/h (2 Bft) S-SO 157 2,9 C -0,3 C 7,1 km/h (2 Bft)
26.05.2013 07:05 3,9 C 92 % 1014,9 hPa 0,0 l/m 8,2 km/h (2 Bft) S-SW 202 2,7 C 0,1 C 6,1 km/h (2 Bft)
26.05.2013 07:10 3,9 C 92 % 1014,9 hPa 0,0 l/m 7,6 km/h (2 Bft) S 180 2,7 C 0,7 C 9,5 km/h (2 Bft)
26.05.2013 07:15 3,9 C 92 % 1014,9 hPa 0,0 l/m 7,4 km/h (2 Bft) S 180 2,7 C 1,0 C 7,9 km/h (2 Bft)
26.05.2013 07:20 3,8 C 92 % 1014,9 hPa 0,0 l/m 6,4 km/h (2 Bft) S 180 2,6 C 2,1 C 10,5 km/h (2 Bft)
26.05.2013 07:25 3,8 C 92 % 1014,9 hPa 0,0 l/m 6,3 km/h (2 Bft) SW 225 2,6 C 2,0 C 7,2 km/h (2 Bft)
26.05.2013 07:30 3,8 C 91 % 1014,9 hPa 0,0 l/m 8,0 km/h (2 Bft) SO 135 2,5 C -0,4 C 6,9 km/h (2 Bft)
26.05.2013 07:35 3,8 C 91 % 1014,9 hPa 0,0 l/m 8,5 km/h (2 Bft) S-SO 157 2,5 C -1,0 C 16,3 km/h (3 Bft)
26.05.2013 07:40 3,8 C 91 % 1014,9 hPa 0,0 l/m 8,4 km/h (2 Bft) S 180 2,5 C -0,7 C 10,5 km/h (2 Bft)
26.05.2013 07:45 3,9 C 91 % 1014,8 hPa 0,0 l/m 8,9 km/h (2 Bft) S 180 2,6 C -1,2 C 9,5 km/h (2 Bft)
26.05.2013 07:50 4,1 C 91 % 1014,8 hPa 0,0 l/m 8,0 km/h (2 Bft) S 180 2,8 C 0,0 C 10,8 km/h (2 Bft)
26.05.2013 07:55 4,2 C 91 % 1014,8 hPa 0,0 l/m 7,4 km/h (2 Bft) S 180 2,9 C 0,8 C 8,0 km/h (2 Bft)
26.05.2013 08:00 4,3 C 91 % 1014,8 hPa 0,0 l/m 6,8 km/h (2 Bft) S 180 3,0 C 1,9 C 6,0 km/h (2 Bft)
26.05.2013 08:05 4,6 C 91 % 1014,7 hPa 0,0 l/m 6,4 km/h (2 Bft) S-SO 157 3,3 C 2,5 C 4,3 km/h (1 Bft)
26.05.2013 08:10 6,1 C 90 % 1014,7 hPa 0,0 l/m 7,1 km/h (2 Bft) O 90 4,6 C 2,4 C 6,1 km/h (2 Bft)
26.05.2013 08:15 7,0 C 87 % 1014,7 hPa 0,0 l/m 8,2 km/h (2 Bft) S-SW 202 5,0 C 2,2 C 11,4 km/h (2 Bft)
26.05.2013 08:20 6,0 C 85 % 1014,7 hPa 0,0 l/m 8,2 km/h (2 Bft) S-SW 202 3,7 C 2,4 C 8,5 km/h (2 Bft)
26.05.2013 08:25 5,8 C 85 % 1014,8 hPa 0,0 l/m 7,9 km/h (2 Bft) S 180 3,5 C 2,6 C 16,7 km/h (3 Bft)
26.05.2013 08:30 5,6 C 85 % 1014,8 hPa 0,0 l/m 8,2 km/h (2 Bft) S 180 3,3 C 2,1 C 20,1 km/h (4 Bft)
26.05.2013 08:35 5,8 C 85 % 1014,8 hPa 0,0 l/m 8,5 km/h (2 Bft) S 180 3,5 C 1,5 C 13,5 km/h (3 Bft)
26.05.2013 08:40 5,8 C 83 % 1014,8 hPa 0,0 l/m 9,7 km/h (2 Bft) W-SW 247 3,1 C 0,8 C 10,0 km/h (2 Bft)
26.05.2013 08:45 6,2 C 81 % 1014,8 hPa 0,0 l/m 8,9 km/h (2 Bft) S 180 3,2 C 1,9 C 11,3 km/h (2 Bft)
26.05.2013 08:50 5,7 C 82 % 1014,8 hPa 0,0 l/m 9,3 km/h (2 Bft) S-SW 202 2,9 C 1,2 C 11,7 km/h (2 Bft)
26.05.2013 08:55 8,1 C 81 % 1014,8 hPa 0,0 l/m 9,0 km/h (2 Bft) O 90 5,0 C 1,6 C 6,3 km/h (2 Bft)
26.05.2013 09:00 10,2 C 75 % 1014,8 hPa 0,0 l/m 8,5 km/h (2 Bft) S 180 6,0 C 4,7 C 11,1 km/h (2 Bft)
26.05.2013 09:05 10,4 C 68 % 1014,9 hPa 0,0 l/m 8,7 km/h (2 Bft) O-SO 112 4,8 C 5,6 C 18,7 km/h (3 Bft)
26.05.2013 09:10 8,9 C 71 % 1014,9 hPa 0,0 l/m 10,0 km/h (2 Bft) S-SO 157 3,9 C 5,2 C 12,4 km/h (3 Bft)
26.05.2013 09:15 8,9 C 71 % 1014,9 hPa 0,0 l/m 9,8 km/h (2 Bft) S-SW 202 3,9 C 4,9 C 11,6 km/h (2 Bft)
26.05.2013 09:20 8,9 C 69 % 1014,9 hPa 0,0 l/m 10,5 km/h (2 Bft) S 180 3,5 C 3,8 C 24,8 km/h (4 Bft)
26.05.2013 09:25 8,9 C 67 % 1014,9 hPa 0,0 l/m 12,6 km/h (3 Bft) S 180 3,1 C 2,6 C 26,2 km/h (4 Bft)
26.05.2013 09:30 7,6 C 72 % 1014,9 hPa 0,0 l/m 11,7 km/h (2 Bft) S 180 2,9 C 2,8 C 9,8 km/h (2 Bft)
26.05.2013 09:35 6,9 C 76 % 1014,9 hPa 0,0 l/m 10,0 km/h (2 Bft) S-SO 157 3,0 C 3,2 C 7,6 km/h (2 Bft)
26.05.2013 09:40 7,7 C 74 % 1014,9 hPa 0,0 l/m 9,2 km/h (2 Bft) S 180 3,4 C 3,6 C 12,1 km/h (2 Bft)
26.05.2013 09:45 8,5 C 73 % 1014,9 hPa 0,0 l/m 9,0 km/h (2 Bft) N 360 3,9 C 4,3 C 7,2 km/h (2 Bft)
26.05.2013 09:50 8,3 C 71 % 1014,9 hPa 0,0 l/m 9,7 km/h (2 Bft) SO 135 3,4 C 4,0 C 10,8 km/h (2 Bft)
26.05.2013 09:55 9,2 C 70 % 1014,9 hPa 0,0 l/m 10,1 km/h (2 Bft) S-SO 157 4,0 C 4,3 C 6,4 km/h (2 Bft)
26.05.2013 10:00 10,6 C 65 % 1014,9 hPa 0,0 l/m 9,8 km/h (2 Bft) SO 135 4,3 C 5,7 C 15,4 km/h (3 Bft)
26.05.2013 10:05 9,5 C 65 % 1015,0 hPa 0,0 l/m 9,7 km/h (2 Bft) S-SO 157 3,3 C 6,3 C 12,9 km/h (3 Bft)
26.05.2013 10:10 9,9 C 64 % 1015,0 hPa 0,0 l/m 10,9 km/h (2 Bft) S-SW 202 3,4 C 4,4 C 14,0 km/h (3 Bft)
26.05.2013 10:15 10,5 C 61 % 1015,0 hPa 0,0 l/m 11,4 km/h (2 Bft) S 180 3,3 C 4,7 C 16,9 km/h (3 Bft)
26.05.2013 10:20 10,7 C 59 % 1015,0 hPa 0,0 l/m 11,6 km/h (2 Bft) S 180 3,0 C 5,5 C 15,8 km/h (3 Bft)
26.05.2013 10:25 11,4 C 58 % 1014,9 hPa 0,0 l/m 11,1 km/h (2 Bft) S-SO 157 3,4 C 6,4 C 16,4 km/h (3 Bft)
26.05.2013 10:30 10,6 C 57 % 1014,9 hPa 0,0 l/m 11,3 km/h (2 Bft) S 180 2,4 C 6,8 C 10,6 km/h (2 Bft)
26.05.2013 10:35 10,2 C 57 % 1014,9 hPa 0,0 l/m 12,1 km/h (2 Bft) S 180 2,1 C 5,9 C 13,7 km/h (3 Bft)
26.05.2013 10:40 10,8 C 55 % 1014,9 hPa 0,0 l/m 10,5 km/h (2 Bft) S 180 2,1 C 7,0 C 29,6 km/h (5 Bft)
26.05.2013 10:45 9,3 C 57 % 1015,3 hPa 0,0 l/m 10,8 km/h (2 Bft) S 180 1,2 C 6,2 C 14,6 km/h (3 Bft)
26.05.2013 10:50 8,3 C 59 % 1015,3 hPa 0,0 l/m 11,3 km/h (2 Bft) O 90 0,8 C 4,3 C 8,4 km/h (2 Bft)
26.05.2013 10:55 7,7 C 59 % 1015,3 hPa 0,0 l/m 11,4 km/h (2 Bft) S 180 0,2 C 3,1 C 22,7 km/h (4 Bft)
26.05.2013 11:00 8,1 C 60 % 1015,3 hPa 0,0 l/m 11,7 km/h (2 Bft) S 180 0,8 C 2,2 C 16,7 km/h (3 Bft)
26.05.2013 11:05 8,4 C 60 % 1015,1 hPa 0,0 l/m 12,1 km/h (2 Bft) S-SO 157 1,1 C 2,1 C 7,2 km/h (2 Bft)
26.05.2013 11:10 8,0 C 59 % 1015,1 hPa 0,0 l/m 11,1 km/h (2 Bft) S 180 0,5 C 3,0 C 16,9 km/h (3 Bft)
26.05.2013 11:15 8,2 C 59 % 1015,1 hPa 0,0 l/m 10,9 km/h (2 Bft) S 180 0,7 C 3,1 C 16,7 km/h (3 Bft)
26.05.2013 11:20 8,1 C 60 % 1015,1 hPa 0,0 l/m 12,9 km/h (3 Bft) S 180 0,8 C 1,6 C 14,3 km/h (3 Bft)
26.05.2013 11:25 9,0 C 59 % 1014,8 hPa 0,0 l/m 13,7 km/h (3 Bft) S 180 1,4 C 1,5 C 11,6 km/h (2 Bft)
26.05.2013 11:30 9,1 C 58 % 1014,8 hPa 0,0 l/m 12,2 km/h (2 Bft) SO 135 1,3 C 3,9 C 18,5 km/h (3 Bft)
26.05.2013 11:35 8,9 C 59 % 1014,8 hPa 0,0 l/m 11,6 km/h (2 Bft) S-SW 202 1,3 C 4,3 C 17,9 km/h (3 Bft)
26.05.2013 11:40 8,6 C 58 % 1014,8 hPa 0,0 l/m 11,1 km/h (2 Bft) S 180 0,8 C 4,3 C 32,0 km/h (5 Bft)
26.05.2013 11:45 8,8 C 59 % 1014,8 hPa 0,0 l/m 11,6 km/h (2 Bft) S-SO 157 1,2 C 3,7 C 10,8 km/h (2 Bft)
26.05.2013 11:50 9,2 C 56 % 1014,8 hPa 0,0 l/m 11,4 km/h (2 Bft) S-SW 202 0,9 C 4,9 C 12,7 km/h (3 Bft)
26.05.2013 11:55 9,6 C 58 % 1014,8 hPa 0,0 l/m 9,7 km/h (2 Bft) S 180 1,8 C 6,5 C 17,1 km/h (3 Bft)
26.05.2013 12:00 8,9 C 57 % 1014,8 hPa 0,0 l/m 11,7 km/h (2 Bft) SO 135 0,9 C 4,4 C 10,5 km/h (2 Bft)
26.05.2013 12:05 8,1 C 59 % 1014,8 hPa 0,0 l/m 13,4 km/h (3 Bft) W-SW 247 0,6 C 2,2 C 12,9 km/h (3 Bft)
26.05.2013 12:10 7,3 C 61 % 1014,8 hPa 0,0 l/m 15,0 km/h (3 Bft) S 180 0,3 C -0,7 C 17,1 km/h (3 Bft)
26.05.2013 12:15 7,2 C 62 % 1014,8 hPa 0,0 l/m 14,5 km/h (3 Bft) S 180 0,4 C -1,1 C 23,0 km/h (4 Bft)
26.05.2013 12:20 7,9 C 64 % 1014,8 hPa 0,0 l/m 11,1 km/h (2 Bft) S 180 1,5 C 2,0 C 10,9 km/h (2 Bft)
26.05.2013 12:25 8,3 C 64 % 1015,0 hPa 0,0 l/m 10,9 km/h (2 Bft) S 180 1,9 C 2,9 C 11,3 km/h (2 Bft)
26.05.2013 12:30 8,7 C 62 % 1015,0 hPa 0,0 l/m 9,3 km/h (2 Bft) SO 135 1,8 C 5,0 C 10,6 km/h (2 Bft)
26.05.2013 12:35 8,7 C 61 % 1015,0 hPa 0,0 l/m 9,7 km/h (2 Bft) O-NO 67 1,6 C 5,0 C 14,6 km/h (3 Bft)
26.05.2013 12:40 8,9 C 59 % 1015,0 hPa 0,0 l/m 11,4 km/h (2 Bft) S 180 1,3 C 3,8 C 13,7 km/h (3 Bft)
26.05.2013 12:45 9,2 C 59 % 1014,9 hPa 0,0 l/m 12,1 km/h (2 Bft) S-SW 202 1,6 C 3,5 C 6,0 km/h (2 Bft)
26.05.2013 12:50 9,6 C 58 % 1014,9 hPa 0,0 l/m 10,8 km/h (2 Bft) S-SW 202 1,8 C 5,5 C 17,9 km/h (3 Bft)
26.05.2013 12:55 9,5 C 58 % 1014,9 hPa 0,0 l/m 10,5 km/h (2 Bft) O-SO 112 1,7 C 5,5 C 5,3 km/h (1 Bft)
26.05.2013 13:00 8,9 C 55 % 1014,9 hPa 0,0 l/m 14,0 km/h (3 Bft) S 180 0,4 C 2,8 C 17,1 km/h (3 Bft)
26.05.2013 13:05 8,9 C 56 % 1014,8 hPa 0,0 l/m 14,2 km/h (3 Bft) S 180 0,6 C 2,5 C 19,3 km/h (3 Bft)
26.05.2013 13:10 8,8 C 57 % 1014,8 hPa 0,0 l/m 12,6 km/h (3 Bft) S 180 0,8 C 3,1 C 11,9 km/h (2 Bft)
26.05.2013 13:15 8,7 C 57 % 1014,8 hPa 0,0 l/m 10,9 km/h (2 Bft) SW 225 0,7 C 4,4 C 10,8 km/h (2 Bft)
26.05.2013 13:20 8,8 C 58 % 1014,8 hPa 0,0 l/m 10,3 km/h (2 Bft) S 180 1,0 C 4,9 C 10,9 km/h (2 Bft)
26.05.2013 13:25 8,6 C 57 % 1014,4 hPa 0,0 l/m 10,6 km/h (2 Bft) S 180 0,6 C 4,7 C 11,1 km/h (2 Bft)
26.05.2013 13:30 8,5 C 56 % 1014,4 hPa 0,0 l/m 12,1 km/h (2 Bft) S 180 0,2 C 3,2 C 38,9 km/h (6 Bft)
26.05.2013 13:35 8,4 C 58 % 1014,4 hPa 0,0 l/m 14,2 km/h (3 Bft) S 180 0,6 C 1,2 C 18,0 km/h (3 Bft)
26.05.2013 13:40 8,3 C 60 % 1014,4 hPa 0,0 l/m 14,0 km/h (3 Bft) S 180 1,0 C 1,0 C 14,6 km/h (3 Bft)
26.05.2013 13:45 8,6 C 62 % 1014,7 hPa 0,0 l/m 12,9 km/h (3 Bft) S 180 1,7 C 1,7 C 11,7 km/h (2 Bft)
26.05.2013 13:50 8,5 C 63 % 1014,7 hPa 0,0 l/m 10,3 km/h (2 Bft) S 180 1,9 C 4,2 C 14,0 km/h (3 Bft)
26.05.2013 13:55 8,6 C 62 % 1014,7 hPa 0,0 l/m 9,0 km/h (2 Bft) W-SW 247 1,7 C 5,4 C 11,6 km/h (2 Bft)
26.05.2013 14:00 8,3 C 63 % 1014,7 hPa 0,0 l/m 8,9 km/h (2 Bft) W-SW 247 1,7 C 5,4 C 8,7 km/h (2 Bft)
26.05.2013 14:05 8,0 C 63 % 1014,6 hPa 0,0 l/m 8,5 km/h (2 Bft) S-SO 157 1,4 C 5,4 C 11,6 km/h (2 Bft)
26.05.2013 14:10 8,2 C 64 % 1014,6 hPa 0,0 l/m 8,7 km/h (2 Bft) S 180 1,8 C 5,1 C 11,1 km/h (2 Bft)
26.05.2013 14:15 7,8 C 65 % 1014,6 hPa 0,0 l/m 9,8 km/h (2 Bft) S 180 1,6 C 4,0 C 11,9 km/h (2 Bft)
26.05.2013 14:20 7,0 C 67 % 1014,6 hPa 0,0 l/m 12,6 km/h (3 Bft) S 180 1,3 C 0,3 C 19,5 km/h (3 Bft)
26.05.2013 14:25 7,1 C 68 % 1014,6 hPa 0,0 l/m 12,4 km/h (3 Bft) S 180 1,6 C -0,2 C 20,9 km/h (4 Bft)
26.05.2013 14:30 7,6 C 65 % 1014,6 hPa 0,0 l/m 11,3 km/h (2 Bft) S-SO 157 1,5 C 1,3 C 9,2 km/h (2 Bft)
26.05.2013 14:35 7,6 C 64 % 1014,6 hPa 0,0 l/m 11,3 km/h (2 Bft) O 90 1,2 C 1,5 C 9,0 km/h (2 Bft)
26.05.2013 14:40 7,7 C 65 % 1014,6 hPa 0,0 l/m 9,8 km/h (2 Bft) S 180 1,5 C 2,9 C 15,6 km/h (3 Bft)
26.05.2013 14:45 7,6 C 65 % 1014,4 hPa 0,0 l/m 9,8 km/h (2 Bft) S-SO 157 1,5 C 3,0 C 8,4 km/h (2 Bft)
26.05.2013 14:50 8,0 C 65 % 1014,4 hPa 0,0 l/m 8,0 km/h (2 Bft) S-SW 202 1,8 C 5,1 C 7,6 km/h (2 Bft)
26.05.2013 14:55 8,1 C 65 % 1014,4 hPa 0,0 l/m 6,8 km/h (2 Bft) S-SO 157 1,9 C 6,9 C 12,2 km/h (2 Bft)
26.05.2013 15:00 7,9 C 63 % 1014,4 hPa 0,0 l/m 9,0 km/h (2 Bft) S 180 1,3 C 4,6 C 12,2 km/h (2 Bft)
26.05.2013 15:05 7,8 C 62 % 1014,4 hPa 0,0 l/m 10,3 km/h (2 Bft) S 180 1,0 C 3,4 C 14,0 km/h (3 Bft)
26.05.2013 15:10 7,8 C 62 % 1014,4 hPa 0,0 l/m 11,9 km/h (2 Bft) S 180 1,0 C 1,7 C 19,0 km/h (3 Bft)
26.05.2013 15:15 7,9 C 61 % 1014,4 hPa 0,0 l/m 12,2 km/h (2 Bft) SO 135 0,9 C 1,4 C 10,8 km/h (2 Bft)
26.05.2013 15:20 7,6 C 64 % 1014,4 hPa 0,0 l/m 12,6 km/h (3 Bft) SW 225 1,2 C 0,5 C 12,2 km/h (2 Bft)
26.05.2013 15:25 7,4 C 64 % 1014,3 hPa 0,0 l/m 14,0 km/h (3 Bft) S-SW 202 1,0 C -0,9 C 13,0 km/h (3 Bft)
26.05.2013 15:30 7,3 C 66 % 1014,3 hPa 0,0 l/m 11,6 km/h (2 Bft) S-SW 202 1,4 C 0,7 C 14,5 km/h (3 Bft)
26.05.2013 15:35 7,1 C 68 % 1014,3 hPa 0,0 l/m 10,0 km/h (2 Bft) SO 135 1,6 C 2,0 C 17,4 km/h (3 Bft)
26.05.2013 15:40 7,1 C 68 % 1014,3 hPa 0,0 l/m 11,1 km/h (2 Bft) W-SW 247 1,6 C 0,5 C 15,6 km/h (3 Bft)
26.05.2013 15:45 7,1 C 68 % 1014,2 hPa 0,0 l/m 11,9 km/h (2 Bft) S 180 1,6 C 0,0 C 8,5 km/h (2 Bft)
26.05.2013 15:50 7,0 C 67 % 1014,2 hPa 0,0 l/m 13,0 km/h (3 Bft) S 180 1,3 C -0,8 C 19,5 km/h (3 Bft)
26.05.2013 15:55 6,9 C 66 % 1014,2 hPa 0,0 l/m 14,6 km/h (3 Bft) S 180 1,0 C -2,0 C 16,7 km/h (3 Bft)
26.05.2013 16:00 7,0 C 66 % 1014,2 hPa 0,0 l/m 14,5 km/h (3 Bft) S 180 1,1 C -2,1 C 16,9 km/h (3 Bft)
26.05.2013 16:05 7,1 C 67 % 1014,2 hPa 0,0 l/m 14,5 km/h (3 Bft) S 180 1,4 C -2,2 C 11,4 km/h (2 Bft)
26.05.2013 16:10 7,2 C 67 % 1014,2 hPa 0,0 l/m 12,9 km/h (3 Bft) S-SW 202 1,5 C -0,7 C 13,7 km/h (3 Bft)
26.05.2013 16:15 7,2 C 67 % 1014,2 hPa 0,0 l/m 11,7 km/h (2 Bft) S 180 1,5 C 0,5 C 13,2 km/h (3 Bft)
26.05.2013 16:20 7,1 C 67 % 1014,2 hPa 0,0 l/m 12,6 km/h (3 Bft) S 180 1,4 C 0,3 C 12,6 km/h (3 Bft)
26.05.2013 16:25 7,0 C 68 % 1014,2 hPa 0,0 l/m 11,7 km/h (2 Bft) S 180 1,5 C 0,9 C 10,8 km/h (2 Bft)
26.05.2013 16:30 7,2 C 68 % 1014,2 hPa 0,0 l/m 9,5 km/h (2 Bft) S 180 1,7 C 3,0 C 15,1 km/h (3 Bft)
26.05.2013 16:35 7,1 C 69 % 1014,2 hPa 0,0 l/m 8,7 km/h (2 Bft) S-SW 202 1,8 C 3,8 C 15,4 km/h (3 Bft)
26.05.2013 16:40 6,9 C 70 % 1014,2 hPa 0,0 l/m 9,3 km/h (2 Bft) S-SW 202 1,8 C 2,7 C 10,3 km/h (2 Bft)
26.05.2013 16:45 6,7 C 71 % 1014,1 hPa 0,0 l/m 9,5 km/h (2 Bft) S 180 1,8 C 2,2 C 10,0 km/h (2 Bft)
26.05.2013 16:50 6,7 C 73 % 1014,1 hPa 0,0 l/m 8,9 km/h (2 Bft) W-SW 247 2,2 C 2,7 C 9,3 km/h (2 Bft)
26.05.2013 16:55 6,7 C 73 % 1014,1 hPa 0,0 l/m 9,0 km/h (2 Bft) S-SO 157 2,2 C 2,5 C 16,3 km/h (3 Bft)
26.05.2013 17:00 6,9 C 74 % 1014,1 hPa 0,0 l/m 9,3 km/h (2 Bft) SO 135 2,6 C 1,9 C 7,6 km/h (2 Bft)
26.05.2013 17:05 6,9 C 74 % 1014,1 hPa 0,0 l/m 9,5 km/h (2 Bft) W-SW 247 2,6 C 2,0 C 14,0 km/h (3 Bft)
26.05.2013 17:10 6,6 C 74 % 1014,1 hPa 0,0 l/m 10,6 km/h (2 Bft) S 180 2,3 C 0,7 C 10,6 km/h (2 Bft)
26.05.2013 17:15 6,6 C 74 % 1014,1 hPa 0,0 l/m 11,4 km/h (2 Bft) S 180 2,3 C -0,2 C 16,4 km/h (3 Bft)
26.05.2013 17:20 6,5 C 74 % 1014,1 hPa 0,0 l/m 11,3 km/h (2 Bft) S 180 2,2 C -0,4 C 10,0 km/h (2 Bft)
26.05.2013 17:25 6,3 C 75 % 1014,1 hPa 0,0 l/m 11,7 km/h (2 Bft) W-SW 247 2,2 C -0,9 C 12,7 km/h (3 Bft)
26.05.2013 17:30 6,1 C 76 % 1014,1 hPa 0,0 l/m 10,5 km/h (2 Bft) S 180 2,2 C -0,1 C 14,3 km/h (3 Bft)
26.05.2013 17:35 6,0 C 77 % 1014,1 hPa 0,0 l/m 11,1 km/h (2 Bft) S 180 2,3 C -0,9 C 12,9 km/h (3 Bft)
26.05.2013 17:40 5,5 C 79 % 1014,1 hPa 0,0 l/m 12,1 km/h (2 Bft) W 270 2,2 C -2,1 C 7,2 km/h (2 Bft)
26.05.2013 17:45 5,4 C 80 % 1014,4 hPa 0,0 l/m 10,8 km/h (2 Bft) SW 225 2,2 C -1,2 C 12,1 km/h (2 Bft)
26.05.2013 17:50 5,2 C 81 % 1014,4 hPa 0,0 l/m 10,5 km/h (2 Bft) S 180 2,2 C -1,3 C 18,2 km/h (3 Bft)
26.05.2013 17:55 5,1 C 81 % 1014,4 hPa 0,0 l/m 11,7 km/h (2 Bft) SW 225 2,1 C -2,7 C 13,8 km/h (3 Bft)
26.05.2013 18:00 5,0 C 83 % 1014,4 hPa 0,0 l/m 10,8 km/h (2 Bft) S-SO 157 2,4 C -2,0 C 7,4 km/h (2 Bft)
26.05.2013 18:05 4,9 C 83 % 1014,2 hPa 0,0 l/m 10,3 km/h (2 Bft) W-NW 292 2,3 C -1,6 C 10,5 km/h (2 Bft)
26.05.2013 18:10 4,7 C 86 % 1014,2 hPa 0,0 l/m 9,8 km/h (2 Bft) S 180 2,6 C -1,3 C 14,8 km/h (3 Bft)
26.05.2013 18:15 4,6 C 87 % 1014,2 hPa 0,0 l/m 9,3 km/h (2 Bft) S 180 2,6 C -0,8 C 8,7 km/h (2 Bft)
26.05.2013 18:20 4,5 C 88 % 1014,2 hPa 0,0 l/m 9,3 km/h (2 Bft) S 180 2,7 C -1,1 C 7,4 km/h (2 Bft)
26.05.2013 18:25 4,4 C 88 % 1014,1 hPa 0,0 l/m 9,0 km/h (2 Bft) S 180 2,6 C -0,6 C 16,4 km/h (3 Bft)
26.05.2013 18:30 4,4 C 89 % 1014,1 hPa 0,7 l/m 7,4 km/h (2 Bft) S 180 2,7 C 1,1 C 6,9 km/h (2 Bft)
26.05.2013 18:35 4,4 C 89 % 1014,1 hPa 0,0 l/m 6,6 km/h (2 Bft) W-SW 247 2,7 C 2,1 C 7,6 km/h (2 Bft)
26.05.2013 18:40 4,4 C 90 % 1014,1 hPa 0,0 l/m 6,0 km/h (2 Bft) SO 135 2,9 C 2,6 C 11,4 km/h (2 Bft)
26.05.2013 18:45 4,3 C 90 % 1013,9 hPa 0,0 l/m 6,9 km/h (2 Bft) S 180 2,8 C 1,8 C 5,8 km/h (2 Bft)
26.05.2013 18:50 4,3 C 90 % 1013,9 hPa 0,0 l/m 7,7 km/h (2 Bft) S 180 2,8 C 0,7 C 5,8 km/h (2 Bft)
26.05.2013 18:55 4,3 C 90 % 1013,9 hPa 0,0 l/m 6,8 km/h (2 Bft) S 180 2,8 C 1,9 C 5,0 km/h (1 Bft)
26.05.2013 19:00 4,3 C 91 % 1013,9 hPa 0,0 l/m 6,8 km/h (2 Bft) S-SW 202 3,0 C 1,9 C 10,3 km/h (2 Bft)
26.05.2013 19:05 4,3 C 91 % 1013,7 hPa 0,0 l/m 6,8 km/h (2 Bft) S 180 3,0 C 1,8 C 5,8 km/h (2 Bft)
26.05.2013 19:10 4,2 C 91 % 1013,7 hPa 0,0 l/m 6,8 km/h (2 Bft) S-SW 202 2,9 C 1,8 C 6,4 km/h (2 Bft)
26.05.2013 19:15 4,2 C 91 % 1013,7 hPa 0,0 l/m 6,8 km/h (2 Bft) S 180 2,9 C 1,8 C 11,7 km/h (2 Bft)
26.05.2013 19:20 4,1 C 91 % 1013,7 hPa 0,0 l/m 8,2 km/h (2 Bft) S-SW 202 2,8 C -0,0 C 15,3 km/h (3 Bft)
26.05.2013 19:25 4,1 C 91 % 1013,9 hPa 0,0 l/m 8,2 km/h (2 Bft) S 180 2,8 C -0,0 C 10,5 km/h (2 Bft)
26.05.2013 19:30 4,1 C 92 % 1013,9 hPa 0,0 l/m 7,7 km/h (2 Bft) O-SO 112 2,9 C 0,4 C 8,4 km/h (2 Bft)
26.05.2013 19:35 4,1 C 92 % 1013,9 hPa 0,0 l/m 7,7 km/h (2 Bft) S-SO 157 2,9 C 0,4 C 11,1 km/h (2 Bft)
26.05.2013 19:40 4,1 C 92 % 1013,9 hPa 0,0 l/m 8,0 km/h (2 Bft) S-SW 202 2,9 C 0,1 C 10,1 km/h (2 Bft)
26.05.2013 19:45 4,2 C 92 % 1013,5 hPa 0,0 l/m 8,9 km/h (2 Bft) NO 45 3,0 C -0,8 C 12,4 km/h (3 Bft)
26.05.2013 19:50 4,2 C 92 % 1013,5 hPa 0,0 l/m 9,0 km/h (2 Bft) O-SO 112 3,0 C -0,9 C 8,9 km/h (2 Bft)
26.05.2013 19:55 4,2 C 92 % 1013,5 hPa 0,0 l/m 8,9 km/h (2 Bft) SO 135 3,0 C -0,7 C 15,6 km/h (3 Bft)
26.05.2013 20:00 4,3 C 92 % 1013,5 hPa 0,0 l/m 10,1 km/h (2 Bft) S 180 3,1 C -2,0 C 14,8 km/h (3 Bft)
26.05.2013 20:05 4,4 C 92 % 1013,6 hPa 0,0 l/m 11,7 km/h (2 Bft) SO 135 3,2 C -3,4 C 26,2 km/h (4 Bft)
26.05.2013 20:10 4,4 C 91 % 1013,6 hPa 0,7 l/m 10,9 km/h (2 Bft) S 180 3,1 C -2,8 C 14,3 km/h (3 Bft)
26.05.2013 20:15 4,4 C 91 % 1013,6 hPa 0,0 l/m 10,5 km/h (2 Bft) S 180 3,1 C -2,4 C 14,6 km/h (3 Bft)
26.05.2013 20:20 4,3 C 91 % 1013,6 hPa 0,0 l/m 11,1 km/h (2 Bft) S 180 3,0 C -3,0 C 8,5 km/h (2 Bft)
26.05.2013 20:25 4,3 C 91 % 1013,4 hPa 0,0 l/m 10,6 km/h (2 Bft) S 180 3,0 C -2,5 C 19,3 km/h (3 Bft)
26.05.2013 20:30 4,2 C 91 % 1013,4 hPa 0,0 l/m 10,1 km/h (2 Bft) S 180 2,9 C -2,0 C 7,4 km/h (2 Bft)
26.05.2013 20:35 4,2 C 91 % 1013,4 hPa 0,0 l/m 9,8 km/h (2 Bft) O-SO 112 2,9 C -1,6 C 10,8 km/h (2 Bft)
26.05.2013 20:40 4,3 C 91 % 1013,4 hPa 0,0 l/m 9,5 km/h (2 Bft) S-SW 202 3,0 C -1,3 C 17,1 km/h (3 Bft)
26.05.2013 20:45 4,3 C 91 % 1013,4 hPa 0,0 l/m 10,6 km/h (2 Bft) N-NW 337 3,0 C -2,5 C 26,2 km/h (4 Bft)
26.05.2013 20:50 4,4 C 90 % 1013,4 hPa 0,0 l/m 12,6 km/h (3 Bft) S-SO 157 2,9 C -4,4 C 26,2 km/h (4 Bft)
26.05.2013 20:55 4,4 C 89 % 1013,4 hPa 0,0 l/m 13,5 km/h (3 Bft) S 180 2,7 C -5,2 C 17,4 km/h (3 Bft)
26.05.2013 21:00 4,4 C 89 % 1013,4 hPa 0,0 l/m 14,0 km/h (3 Bft) O 90 2,7 C -5,5 C 17,7 km/h (3 Bft)
26.05.2013 21:05 4,4 C 89 % 1012,9 hPa 0,0 l/m 13,5 km/h (3 Bft) S-SW 202 2,7 C -5,0 C 13,4 km/h (3 Bft)
26.05.2013 21:10 4,4 C 88 % 1012,9 hPa 0,0 l/m 12,9 km/h (3 Bft) S-SO 157 2,6 C -4,5 C 11,6 km/h (2 Bft)
26.05.2013 21:15 4,4 C 89 % 1012,9 hPa 0,0 l/m 11,6 km/h (2 Bft) S 180 2,7 C -3,2 C 7,4 km/h (2 Bft)
26.05.2013 21:20 4,4 C 88 % 1012,9 hPa 0,0 l/m 12,1 km/h (2 Bft) S 180 2,6 C -3,7 C 20,8 km/h (4 Bft)
26.05.2013 21:25 4,4 C 89 % 1012,8 hPa 0,0 l/m 12,2 km/h (2 Bft) S 180 2,7 C -3,9 C 18,3 km/h (3 Bft)
26.05.2013 21:30 4,4 C 88 % 1012,8 hPa 0,0 l/m 12,4 km/h (3 Bft) S 180 2,6 C -4,2 C 11,3 km/h (2 Bft)
26.05.2013 21:35 4,3 C 89 % 1012,8 hPa 0,0 l/m 12,1 km/h (2 Bft) S-SW 202 2,7 C -3,9 C 17,2 km/h (3 Bft)
26.05.2013 21:40 4,2 C 89 % 1012,8 hPa 0,0 l/m 9,3 km/h (2 Bft) SO 135 2,6 C -1,1 C 10,9 km/h (2 Bft)
26.05.2013 21:45 4,2 C 90 % 1013,0 hPa 0,0 l/m 9,7 km/h (2 Bft) S 180 2,7 C -1,7 C 16,1 km/h (3 Bft)
26.05.2013 21:50 4,2 C 90 % 1013,0 hPa 0,0 l/m 11,1 km/h (2 Bft) S-SO 157 2,7 C -3,1 C 10,8 km/h (2 Bft)
26.05.2013 21:55 4,1 C 90 % 1013,0 hPa 0,0 l/m 10,3 km/h (2 Bft) S 180 2,6 C -2,3 C 15,1 km/h (3 Bft)
26.05.2013 22:00 4,1 C 91 % 1013,0 hPa 0,0 l/m 8,9 km/h (2 Bft) S-SO 157 2,8 C -0,8 C 8,5 km/h (2 Bft)
26.05.2013 22:05 4,1 C 91 % 1013,1 hPa 0,0 l/m 9,0 km/h (2 Bft) S-SO 157 2,8 C -0,9 C 10,5 km/h (2 Bft)
26.05.2013 22:10 4,2 C 91 % 1013,1 hPa 0,0 l/m 9,5 km/h (2 Bft) S-SO 157 2,9 C -1,5 C 13,0 km/h (3 Bft)
26.05.2013 22:15 4,1 C 91 % 1013,1 hPa 0,0 l/m 10,6 km/h (2 Bft) S 180 2,8 C -2,6 C 12,2 km/h (2 Bft)
26.05.2013 22:20 4,2 C 91 % 1013,1 hPa 0,0 l/m 10,8 km/h (2 Bft) S 180 2,9 C -2,7 C 10,1 km/h (2 Bft)
26.05.2013 22:25 4,1 C 91 % 1013,1 hPa 0,0 l/m 10,3 km/h (2 Bft) S-SW 202 2,8 C -2,3 C 10,3 km/h (2 Bft)
26.05.2013 22:30 4,1 C 91 % 1013,1 hPa 0,0 l/m 9,2 km/h (2 Bft) S 180 2,8 C -1,0 C 15,1 km/h (3 Bft)
26.05.2013 22:35 4,1 C 91 % 1013,1 hPa 0,0 l/m 9,7 km/h (2 Bft) S 180 2,8 C -1,7 C 11,9 km/h (2 Bft)
26.05.2013 22:40 4,1 C 91 % 1013,1 hPa 0,0 l/m 12,2 km/h (2 Bft) S 180 2,8 C -4,3 C 11,7 km/h (2 Bft)
26.05.2013 22:45 4,1 C 91 % 1013,3 hPa 0,0 l/m 11,7 km/h (2 Bft) S 180 2,8 C -3,9 C 15,9 km/h (3 Bft)
26.05.2013 22:50 4,1 C 90 % 1013,3 hPa 0,0 l/m 11,3 km/h (2 Bft) S-SW 202 2,6 C -3,5 C 11,4 km/h (2 Bft)
26.05.2013 22:55 4,1 C 90 % 1013,3 hPa 0,0 l/m 12,1 km/h (2 Bft) S-SW 202 2,6 C -4,2 C 18,5 km/h (3 Bft)
26.05.2013 23:00 4,1 C 90 % 1013,3 hPa 0,0 l/m 12,1 km/h (2 Bft) S 180 2,6 C -4,2 C 11,9 km/h (2 Bft)
26.05.2013 23:05 4,0 C 90 % 1013,2 hPa 0,0 l/m 11,7 km/h (2 Bft) S-SW 202 2,5 C -3,9 C 13,8 km/h (3 Bft)
26.05.2013 23:10 4,0 C 90 % 1013,2 hPa 0,0 l/m 11,1 km/h (2 Bft) S 180 2,5 C -3,3 C 14,0 km/h (3 Bft)
26.05.2013 23:15 4,0 C 90 % 1013,2 hPa 0,0 l/m 10,8 km/h (2 Bft) S 180 2,5 C -3,1 C 18,7 km/h (3 Bft)
26.05.2013 23:20 4,0 C 90 % 1013,2 hPa 0,0 l/m 11,7 km/h (2 Bft) S 180 2,5 C -3,9 C 10,3 km/h (2 Bft)
26.05.2013 23:25 4,0 C 90 % 1013,1 hPa 0,7 l/m 12,4 km/h (3 Bft) O-SO 112 2,5 C -4,6 C 23,3 km/h (4 Bft)
26.05.2013 23:30 3,9 C 91 % 1013,1 hPa 0,0 l/m 10,6 km/h (2 Bft) S 180 2,6 C -3,0 C 13,7 km/h (3 Bft)
26.05.2013 23:35 3,9 C 91 % 1013,1 hPa 0,0 l/m 10,9 km/h (2 Bft) S-SO 157 2,6 C -3,3 C 12,2 km/h (2 Bft)
26.05.2013 23:40 3,9 C 91 % 1013,1 hPa 0,0 l/m 11,4 km/h (2 Bft) S 180 2,6 C -3,8 C 12,6 km/h (3 Bft)
26.05.2013 23:45 3,8 C 91 % 1013,2 hPa 0,0 l/m 10,8 km/h (2 Bft) S 180 2,5 C -3,3 C 5,8 km/h (2 Bft)
26.05.2013 23:50 3,8 C 91 % 1013,2 hPa 0,0 l/m 9,8 km/h (2 Bft) S 180 2,5 C -2,3 C 10,5 km/h (2 Bft)
26.05.2013 23:55 3,8 C 92 % 1013,2 hPa 0,0 l/m 9,0 km/h (2 Bft) S 180 2,6 C -1,4 C 4,5 km/h (1 Bft)
_ Min-Zeit 00:45 13:00 21:40 - 01:10 - - 10:55 21:00 01:05
Minimum _ 2,6 C 55 % 1012,8 hPa - 0,3 km/h (0 Bft) - - 0,2 C -5,5 C 0,0 km/h (0 Bft)
_ Max-Zeit 10:25 04:25 11:00 23:25 12:10 - - 09:00 10:40 13:30
Maximum _ 11,4 C 97 % 1015,3 hPa 0,7 l/m 15,0 km/h
S (3 Bft)
- - 6,0 C 7,0 C 38,9 km/h
S (6 Bft)
Durchschnitt _ 5,4 C 82 % 1014,2 hPa #2,1 l/m 8,8 km/h (2 Bft) S - 2,3 C 1,0 C 11,3 km/h (2 Bft)